Tracking 35237 objects as of 5-Sep-2026
HD Live streaming from Space Station
objects crossing your sky now

ASTRON

Track ASTRON now!
ASTRON is classified as:


NORAD ID: 13901
Int'l Code: 1983-020A
Launch date: March 23, 1983
Source: Commonwealth of Independent States (former USSR) (CIS)
Launch site: TYURATAM MISSILE AND SPACE COMPLEX (TTMTR)
Your satellite tracking list
Your tracking list is empty




NASA's NSSDC Master Catalog

Two Line Element Set (TLE):
1 13901U 83020A   26249.30600206  .00000359  00000-0  00000+0 0  9993
2 13901  77.2973  55.0253 7269981  53.8776   0.4342  0.24277866 11343
Source of the keplerian elements: AFSPC